| time (UTC) | temp F | wind direction | speed knots | gust knots | rain 1hr in | rain 24hr in | rain mn in | humidity % | barometer mb |
| 20260503005815 | 53 | 197 | 0.0 | 0.0 | 0.00 | 0.00 | 0.00 | 66 | 1008.8 |
| 20260503005314 | 53 | 197 | 0.0 | 0.0 | 0.00 | 0.00 | 0.00 | 66 | 1008.7 |
| 20260503004815 | 53 | 197 | 0.0 | 0.0 | 0.00 | 0.00 | 0.00 | 66 | 1008.7 |
| 20260503004314 | 53 | 197 | 0.0 | 0.0 | 0.00 | 0.00 | 0.00 | 65 | 1008.5 |
| 20260503003813 | 53 | 197 | 0.0 | 0.0 | 0.00 | 0.00 | 0.00 | 64 | 1008.5 |
| 20260503003309 | 53 | 197 | 0.0 | 0.0 | 0.00 | 0.00 | 0.00 | 64 | 1008.4 |
| 20260503002810 | 53 | 197 | 0.0 | 0.0 | 0.00 | 0.00 | 0.00 | 63 | 1008.4 |
| 20260503002313 | 54 | 197 | 0.0 | 0.0 | 0.00 | 0.00 | 0.00 | 63 | 1008.3 |
| 20260503002030 | 54 | 197 | 0.0 | 0.0 | 0.00 | 0.00 | 0.00 | 62 | 1008.3 |
| 20260503001309 | 54 | 197 | 0.0 | 0.9 | 0.00 | 0.00 | 0.00 | 61 | 1008.3 |
| 20260503000807 | 54 | 197 | 0.0 | 0.9 | 0.00 | 0.00 | 0.00 | 60 | 1008.2 |
| 20260503000311 | 55 | 197 | 0.0 | 0.0 | 0.00 | 0.00 | 0.00 | 59 | 1008.1 |
| 20260502235807 | 55 | 198 | 0.0 | 0.0 | 0.00 | 0.00 | 0.00 | 58 | 1007.9 |
| 20260502235527 | 56 | 197 | 0.0 | 0.0 | 0.00 | 0.00 | 0.00 | 57 | 1007.8 |
| 20260502234804 | 56 | 198 | 0.0 | 0.0 | 0.00 | 0.00 | 0.00 | 56 | 1007.8 |
| 20260502234303 | 56 | 197 | 0.0 | 0.0 | 0.00 | 0.00 | 0.00 | 55 | 1007.7 |
| 20260502233805 | 57 | 197 | 0.0 | 0.0 | 0.00 | 0.00 | 0.00 | 54 | 1007.7 |
| 20260502233755 | 57 | 198 | 0.0 | 0.0 | 0.00 | 0.00 | 0.00 | 54 | 1007.6 |
| 20260502232802 | 57 | 198 | 0.0 | 0.9 | 0.00 | 0.00 | 0.00 | 54 | 1007.6 |
| 20260502232304 | 58 | 197 | 0.0 | 0.9 | 0.00 | 0.00 | 0.00 | 53 | 1007.5 |
| 20260502231802 | 58 | 214 | 0.0 | 0.0 | 0.00 | 0.00 | 0.00 | 53 | 1007.4 |
| 20260502231757 | 58 | 214 | 0.0 | 0.0 | 0.00 | 0.00 | 0.00 | 52 | 1007.4 |
| 20260502230755 | 58 | 214 | 0.0 | 0.0 | 0.00 | 0.00 | 0.00 | 51 | 1007.4 |
| 20260502230249 | 58 | 214 | 0.0 | 0.0 | 0.00 | 0.00 | 0.00 | 51 | 1007.3 |
| 20260502230225 | 58 | 214 | 0.0 | 0.0 | 0.00 | 0.00 | 0.00 | 50 | 1007.3 |
| 20260502225237 | 59 | 214 | 0.0 | 1.7 | 0.00 | 0.00 | 0.00 | 49 | 1007.3 |
| 20260502224953 | 59 | 214 | 0.0 | 1.7 | 0.00 | 0.00 | 0.00 | 48 | 1007.2 |
| 20260502224225 | 59 | 214 | 0.0 | 0.9 | 0.00 | 0.00 | 0.00 | 47 | 1007.1 |
| 20260502223719 | 60 | 214 | 0.0 | 0.9 | 0.00 | 0.00 | 0.00 | 46 | 1007.2 |
| 20260502223212 | 60 | 214 | 0.0 | 1.7 | 0.00 | 0.00 | 0.00 | 46 | 1007.2 |
| 20260502222707 | 60 | 214 | 0.0 | 1.7 | 0.00 | 0.00 | 0.00 | 48 | 1007.1 |
| 20260502222201 | 60 | 41 | 0.0 | 0.9 | 0.00 | 0.00 | 0.00 | 47 | 1007.1 |
| 20260502221654 | 60 | 46 | 0.0 | 1.7 | 0.00 | 0.00 | 0.00 | 47 | 1007.2 |
| 20260502221409 | 60 | 53 | 0.9 | 1.7 | 0.00 | 0.00 | 0.00 | 44 | 1007.3 |
| 20260502220643 | 60 | 31 | 0.9 | 2.6 | 0.00 | 0.00 | 0.00 | 44 | 1007.4 |
| 20260502220137 | 60 | 31 | 0.9 | 2.6 | 0.00 | 0.00 | 0.00 | 44 | 1007.5 |
| 20260502215630 | 60 | 31 | 0.9 | 2.6 | 0.00 | 0.00 | 0.00 | 46 | 1007.5 |
| 20260502215125 | 60 | 33 | 0.9 | 1.7 | 0.00 | 0.00 | 0.00 | 43 | 1007.4 |
| 20260502214620 | 60 | 32 | 0.9 | 2.6 | 0.00 | 0.00 | 0.00 | 44 | 1007.5 |
| 20260502214113 | 61 | 28 | 0.9 | 2.6 | 0.00 | 0.00 | 0.00 | 45 | 1007.5 |
| 20260502213606 | 61 | 34 | 0.9 | 2.6 | 0.00 | 0.00 | 0.00 | 44 | 1007.5 |
| 20260502213101 | 61 | 37 | 0.9 | 2.6 | 0.00 | 0.00 | 0.00 | 44 | 1007.4 |
| 20260502212555 | 60 | 143 | 0.9 | 3.5 | 0.00 | 0.00 | 0.00 | 44 | 1007.5 |
| 20260502212049 | 59 | 35 | 0.9 | 3.5 | 0.00 | 0.00 | 0.00 | 46 | 1007.4 |
| 20260502211542 | 59 | 23 | 0.9 | 2.6 | 0.00 | 0.00 | 0.00 | 47 | 1007.4 |
| 20260502211037 | 59 | 32 | 0.0 | 1.7 | 0.00 | 0.00 | 0.00 | 48 | 1007.4 |
| 20260502210532 | 59 | 23 | 0.0 | 1.7 | 0.00 | 0.00 | 0.00 | 46 | 1007.3 |
| 20260502210025 | 59 | 30 | 0.9 | 2.6 | 0.00 | 0.00 | 0.00 | 46 | 1007.3 |
| 20260502205746 | 60 | 30 | 0.9 | 2.6 | 0.00 | 0.00 | 0.00 | 46 | 1007.3 |
| 20260502205012 | 60 | 27 | 0.0 | 1.7 | 0.00 | 0.00 | 0.00 | 48 | 1007.2 |
| 20260502204506 | 60 | 146 | 0.0 | 1.7 | 0.00 | 0.00 | 0.00 | 46 | 1007.2 |
| 20260502204001 | 60 | 202 | 0.9 | 3.5 | 0.00 | 0.00 | 0.00 | 45 | 1007.3 |
| 20260502203455 | 60 | 26 | 0.0 | 3.5 | 0.00 | 0.00 | 0.00 | 44 | 1007.4 |
| 20260502202948 | 61 | 35 | 0.0 | 3.5 | 0.00 | 0.00 | 0.00 | 45 | 1007.5 |
| 20260502202447 | 61 | 43 | 0.0 | 3.5 | 0.00 | 0.00 | 0.00 | 45 | 1007.5 |
| 20260502201946 | 61 | 207 | 0.0 | 2.6 | 0.00 | 0.00 | 0.00 | 44 | 1007.4 |
| 20260502201446 | 61 | 29 | 0.0 | 2.6 | 0.00 | 0.00 | 0.00 | 45 | 1007.4 |
| 20260502200945 | 62 | 163 | 0.0 | 1.7 | 0.00 | 0.00 | 0.00 | 43 | 1007.5 |
| 20260502200446 | 62 | 39 | 0.0 | 1.7 | 0.00 | 0.00 | 0.00 | 45 | 1007.5 |
| 20260502200207 | 61 | 40 | 0.9 | 1.7 | 0.00 | 0.00 | 0.00 | 46 | 1007.3 |
| 20260502195709 | 62 | 39 | 0.9 | 1.7 | 0.00 | 0.00 | 0.00 | 43 | 1007.5 |
| 20260502194939 | 63 | 188 | 0.0 | 1.7 | 0.00 | 0.00 | 0.00 | 42 | 1007.6 |
| 20260502194702 | 63 | 30 | 0.0 | 1.7 | 0.00 | 0.00 | 0.00 | 42 | 1007.5 |
| 20260502193940 | 63 | 214 | 0.9 | 2.6 | 0.00 | 0.00 | 0.00 | 42 | 1007.7 |
| 20260502193439 | 62 | 38 | 0.9 | 2.6 | 0.00 | 0.00 | 0.00 | 45 | 1007.7 |
| 20260502192937 | 62 | 25 | 0.0 | 2.6 | 0.00 | 0.00 | 0.00 | 44 | 1007.8 |
| 20260502192437 | 61 | 39 | 0.9 | 4.3 | 0.00 | 0.00 | 0.00 | 42 | 1007.8 |
| 20260502192154 | 61 | 43 | 0.9 | 4.3 | 0.00 | 0.00 | 0.00 | 42 | 1007.9 |
| 20260502191434 | 61 | 30 | 0.9 | 2.6 | 0.00 | 0.00 | 0.00 | 43 | 1007.9 |
| 20260502191200 | 62 | 34 | 0.9 | 5.2 | 0.00 | 0.00 | 0.00 | 45 | 1008.0 |
| 20260502190434 | 62 | 34 | 0.9 | 5.2 | 0.00 | 0.00 | 0.00 | 43 | 1008.0 |
| 20260502185936 | 62 | 22 | 0.0 | 2.6 | 0.00 | 0.00 | 0.00 | 45 | 1008.1 |
| 20260502185432 | 62 | 44 | 0.0 | 2.6 | 0.00 | 0.00 | 0.00 | 46 | 1008.3 |
| 20260502184924 | 61 | 33 | 0.0 | 2.6 | 0.00 | 0.00 | 0.00 | 45 | 1008.3 |
| 20260502184418 | 62 | 26 | 0.9 | 2.6 | 0.00 | 0.00 | 0.00 | 46 | 1008.3 |
| 20260502183912 | 61 | 41 | 0.9 | 3.5 | 0.00 | 0.00 | 0.00 | 46 | 1008.3 |
| 20260502183412 | 61 | 31 | 0.9 | 3.5 | 0.00 | 0.00 | 0.00 | 45 | 1008.3 |
| 20260502182909 | 60 | 13 | 0.9 | 2.6 | 0.00 | 0.00 | 0.00 | 45 | 1008.5 |
| 20260502182408 | 61 | 209 | 0.9 | 3.5 | 0.00 | 0.00 | 0.00 | 45 | 1008.7 |
| 20260502181905 | 61 | 103 | 0.9 | 7.0 | 0.00 | 0.00 | 0.00 | 45 | 1008.9 |
| 20260502181403 | 61 | 148 | 0.9 | 7.0 | 0.00 | 0.00 | 0.00 | 45 | 1008.8 |
| 20260502180902 | 61 | 168 | 0.9 | 3.5 | 0.00 | 0.00 | 0.00 | 47 | 1008.9 |
| 20260502180359 | 60 | 210 | 0.9 | 4.3 | 0.00 | 0.00 | 0.00 | 47 | 1009.0 |
| 20260502170350 | 56 | 41 | 0.9 | 2.6 | 0.00 | 0.00 | 0.00 | 52 | 1010.0 |
| 20260502164342 | 56 | 32 | 0.0 | 2.6 | 0.00 | 0.00 | 0.00 | 53 | 1010.0 |
| 20260502163844 | 56 | 32 | 0.9 | 4.3 | 0.00 | 0.00 | 0.00 | 53 | 1010.0 |
| 20260502163344 | 56 | 38 | 0.9 | 4.3 | 0.00 | 0.00 | 0.00 | 51 | 1010.0 |
| 20260502162842 | 56 | 32 | 0.9 | 3.5 | 0.00 | 0.00 | 0.00 | 51 | 1010.0 |
| 20260502162345 | 56 | 216 | 0.9 | 3.5 | 0.00 | 0.00 | 0.00 | 52 | 1010.2 |
| 20260502161843 | 56 | 31 | 0.0 | 3.5 | 0.00 | 0.00 | 0.00 | 53 | 1010.1 |
| 20260502161344 | 56 | 49 | 0.0 | 1.7 | 0.00 | 0.00 | 0.00 | 55 | 1010.2 |
| 20260502160840 | 56 | 31 | 0.0 | 1.7 | 0.00 | 0.00 | 0.00 | 53 | 1010.3 |
| 20260502160339 | 56 | 31 | 0.0 | 1.7 | 0.00 | 0.00 | 0.00 | 56 | 1010.1 |
| 20260502152339 | 55 | 27 | 0.9 | 4.3 | 0.00 | 0.00 | 0.00 | 55 | 1010.6 |
| 20260502151838 | 55 | 27 | 0.9 | 4.3 | 0.00 | 0.00 | 0.00 | 55 | 1010.5 |
| 20260502151338 | 54 | 252 | 0.9 | 3.5 | 0.00 | 0.00 | 0.00 | 56 | 1010.3 |
| 20260502150839 | 54 | 51 | 0.9 | 2.6 | 0.00 | 0.00 | 0.00 | 56 | 1010.4 |
| 20260502150338 | 54 | 20 | 0.9 | 4.3 | 0.00 | 0.00 | 0.00 | 58 | 1010.5 |
| 20260502130252 | 53 | 27 | 1.7 | 5.2 | 0.00 | 0.00 | 0.00 | 66 | 1009.9 |
| 20260502123737 | 52 | 28 | 0.9 | 2.6 | 0.00 | 0.00 | 0.00 | 71 | 1009.4 |
| 20260502123457 | 52 | 30 | 0.0 | 2.6 | 0.00 | 0.00 | 0.00 | 72 | 1009.6 |
| 20260502122725 | 52 | 20 | 0.9 | 2.6 | 0.00 | 0.00 | 0.00 | 72 | 1009.6 |
| 20260502122451 | 52 | 42 | 0.9 | 4.3 | 0.00 | 0.00 | 0.00 | 73 | 1009.5 |
| 20260502121713 | 52 | 29 | 0.0 | 4.3 | 0.00 | 0.00 | 0.00 | 73 | 1009.5 |
| 20260502121207 | 52 | 25 | 0.0 | 2.6 | 0.00 | 0.00 | 0.00 | 75 | 1009.3 |
| 20260502120701 | 52 | 24 | 0.9 | 2.6 | 0.00 | 0.00 | 0.00 | 75 | 1009.2 |
| 20260502120155 | 52 | 28 | 0.9 | 2.6 | 0.00 | 0.00 | 0.00 | 75 | 1009.3 |
| 20260502115648 | 52 | 34 | 0.9 | 2.6 | 0.00 | 0.00 | 0.00 | 76 | 1009.3 |
| 20260502115143 | 51 | 28 | 0.9 | 2.6 | 0.00 | 0.00 | 0.00 | 77 | 1009.4 |
| 20260502114637 | 51 | 29 | 0.9 | 2.6 | 0.00 | 0.00 | 0.00 | 76 | 1009.4 |
| 20260502114131 | 51 | 251 | 0.0 | 2.6 | 0.00 | 0.00 | 0.00 | 77 | 1009.5 |
| 20260502113625 | 51 | 31 | 0.9 | 4.3 | 0.00 | 0.00 | 0.00 | 77 | 1009.4 |
| 20260502113119 | 51 | 35 | 0.9 | 4.3 | 0.00 | 0.00 | 0.00 | 78 | 1009.5 |
| 20260502112613 | 51 | 34 | 0.9 | 2.6 | 0.00 | 0.00 | 0.00 | 79 | 1009.4 |
| 20260502112108 | 51 | 30 | 0.0 | 2.6 | 0.00 | 0.00 | 0.00 | 80 | 1009.4 |
| 20260502111601 | 51 | 34 | 0.0 | 1.7 | 0.00 | 0.00 | 0.00 | 82 | 1009.4 |
| 20260502111055 | 50 | 31 | 0.0 | 1.7 | 0.00 | 0.00 | 0.00 | 84 | 1009.4 |
| 20260502110549 | 50 | 34 | 0.0 | 1.7 | 0.00 | 0.00 | 0.00 | 85 | 1009.4 |
| 20260502110042 | 49 | 35 | 0.0 | 1.7 | 0.00 | 0.00 | 0.00 | 87 | 1009.5 |
| 20260502105537 | 49 | 8 | 0.0 | 0.0 | 0.00 | 0.00 | 0.00 | 88 | 1009.5 |
| 20260502105031 | 49 | 8 | 0.0 | 0.0 | 0.00 | 0.00 | 0.00 | 89 | 1009.5 |
| 20260502104525 | 49 | 8 | 0.0 | 0.0 | 0.00 | 0.00 | 0.00 | 89 | 1009.3 |
| 20260502104019 | 49 | 8 | 0.0 | 0.0 | 0.00 | 0.00 | 0.00 | 89 | 1009.2 |
| 20260502103740 | 49 | 8 | 0.0 | 0.0 | 0.00 | 0.00 | 0.00 | 89 | 1009.2 |
| 20260502103007 | 49 | 8 | 0.0 | 0.0 | 0.00 | 0.00 | 0.00 | 89 | 1009.2 |
| 20260502102501 | 49 | 8 | 0.0 | 0.0 | 0.00 | 0.00 | 0.00 | 89 | 1009.1 |
| 20260502101955 | 49 | 8 | 0.0 | 0.0 | 0.00 | 0.00 | 0.00 | 89 | 1009.1 |
| 20260502101449 | 49 | 8 | 0.0 | 0.0 | 0.00 | 0.00 | 0.00 | 89 | 1009.0 |
| 20260502100943 | 49 | 8 | 0.0 | 0.0 | 0.00 | 0.00 | 0.00 | 89 | 1008.9 |
| 20260502100436 | 49 | 8 | 0.0 | 0.0 | 0.00 | 0.00 | 0.00 | 89 | 1008.8 |
| 20260502091337 | 49 | 8 | 0.0 | 0.0 | 0.00 | 0.00 | 0.00 | 88 | 1008.6 |
| 20260502090831 | 49 | 8 | 0.0 | 0.0 | 0.00 | 0.00 | 0.00 | 88 | 1008.7 |
| 20260502090325 | 49 | 8 | 0.0 | 0.0 | 0.00 | 0.00 | 0.00 | 87 | 1008.6 |
| 20260502071134 | 52 | 8 | 0.0 | 0.0 | 0.00 | 0.00 | 0.00 | 82 | 1008.0 |
| 20260502070634 | 52 | 8 | 0.0 | 0.0 | 0.00 | 0.00 | 0.00 | 82 | 1008.0 |
| 20260502070135 | 52 | 8 | 0.0 | 0.0 | 0.00 | 0.00 | 0.00 | 82 | 1008.0 |
| 20260502065631 | 52 | 8 | 0.0 | 0.0 | 0.00 | 0.00 | 0.00 | 81 | 1008.1 |
| 20260502065130 | 53 | 8 | 0.0 | 0.0 | 0.00 | 0.00 | 0.00 | 81 | 1008.2 |
| 20260502064631 | 53 | 8 | 0.0 | 0.0 | 0.00 | 0.00 | 0.00 | 80 | 1008.1 |
| 20260502064131 | 53 | 8 | 0.0 | 0.0 | 0.00 | 0.00 | 0.00 | 80 | 1008.1 |
| 20260502063631 | 53 | 8 | 0.0 | 0.0 | 0.00 | 0.00 | 0.00 | 79 | 1007.9 |
| 20260502063131 | 53 | 8 | 0.0 | 0.0 | 0.00 | 0.00 | 0.00 | 79 | 1008.0 |
| 20260502062632 | 53 | 8 | 0.0 | 0.0 | 0.00 | 0.00 | 0.00 | 79 | 1008.1 |
| 20260502062132 | 53 | 8 | 0.0 | 0.0 | 0.00 | 0.00 | 0.00 | 78 | 1008.1 |
| 20260502061633 | 54 | 8 | 0.0 | 0.0 | 0.00 | 0.00 | 0.00 | 78 | 1008.2 |
| 20260502061132 | 54 | 8 | 0.0 | 0.9 | 0.00 | 0.00 | 0.00 | 78 | 1008.2 |
| 20260502060855 | 54 | 8 | 0.0 | 0.9 | 0.00 | 0.00 | 0.00 | 78 | 1008.3 |
| 20260502060130 | 54 | 8 | 0.0 | 0.0 | 0.00 | 0.00 | 0.00 | 77 | 1008.5 |
| 20260502055629 | 54 | 8 | 0.0 | 0.0 | 0.00 | 0.00 | 0.00 | 77 | 1008.5 |
| 20260502055129 | 55 | 8 | 0.0 | 0.0 | 0.00 | 0.00 | 0.00 | 76 | 1008.5 |
| 20260502054850 | 55 | 8 | 0.0 | 0.9 | 0.00 | 0.00 | 0.00 | 76 | 1008.5 |
| 20260502054129 | 55 | 8 | 0.0 | 0.9 | 0.00 | 0.00 | 0.00 | 76 | 1008.4 |
| 20260502053630 | 55 | 6 | 0.0 | 0.0 | 0.00 | 0.00 | 0.00 | 76 | 1008.3 |
| 20260502053129 | 55 | 6 | 0.0 | 0.0 | 0.00 | 0.00 | 0.00 | 76 | 1008.3 |
| 20260502052630 | 55 | 6 | 0.0 | 0.0 | 0.00 | 0.00 | 0.00 | 75 | 1008.3 |
| 20260502052130 | 55 | 6 | 0.0 | 0.0 | 0.00 | 0.00 | 0.00 | 75 | 1008.3 |
| 20260502051631 | 55 | 6 | 0.0 | 0.0 | 0.00 | 0.00 | 0.00 | 75 | 1008.3 |
| 20260502051357 | 55 | 6 | 0.0 | 0.0 | 0.00 | 0.00 | 0.00 | 75 | 1008.4 |
| 20260502050628 | 55 | 6 | 0.0 | 0.9 | 0.00 | 0.00 | 0.00 | 74 | 1008.3 |
| 20260502050121 | 55 | 11 | 0.0 | 0.9 | 0.00 | 0.00 | 0.00 | 74 | 1008.3 |
| 20260502045616 | 55 | 21 | 0.0 | 0.9 | 0.00 | 0.00 | 0.00 | 74 | 1008.3 |
| 20260502045109 | 56 | 21 | 0.0 | 0.9 | 0.00 | 0.00 | 0.00 | 74 | 1008.3 |
| 20260502044604 | 56 | 21 | 0.0 | 0.9 | 0.00 | 0.00 | 0.00 | 74 | 1008.4 |
| 20260502044058 | 56 | 20 | 0.0 | 0.9 | 0.00 | 0.00 | 0.00 | 74 | 1008.4 |
| 20260502043810 | 56 | 27 | 0.0 | 0.9 | 0.00 | 0.00 | 0.00 | 73 | 1008.5 |
| 20260502043046 | 56 | 91 | 0.0 | 1.7 | 0.00 | 0.00 | 0.00 | 73 | 1008.6 |
| 20260502042540 | 56 | 90 | 0.0 | 1.7 | 0.00 | 0.00 | 0.00 | 73 | 1008.6 |
| 20260502042034 | 56 | 213 | 0.0 | 0.9 | 0.00 | 0.00 | 0.00 | 73 | 1008.6 |
| 20260502041528 | 56 | 212 | 0.0 | 0.9 | 0.00 | 0.00 | 0.00 | 72 | 1008.5 |
| 20260502041249 | 56 | 212 | 0.0 | 0.9 | 0.00 | 0.00 | 0.00 | 72 | 1008.5 |
| 20260502040516 | 56 | 212 | 0.0 | 0.9 | 0.00 | 0.00 | 0.00 | 72 | 1008.6 |
| 20260502040010 | 56 | 124 | 0.0 | 0.9 | 0.00 | 0.00 | 0.00 | 71 | 1008.5 |
| 20260502035506 | 57 | 118 | 0.0 | 0.9 | 0.00 | 0.00 | 0.00 | 70 | 1008.4 |
| 20260502034959 | 57 | 118 | 0.0 | 0.9 | 0.00 | 0.00 | 0.00 | 70 | 1008.4 |
| 20260502034452 | 57 | 118 | 0.0 | 0.9 | 0.00 | 0.00 | 0.00 | 70 | 1008.5 |
| 20260502034210 | 57 | 210 | 0.0 | 0.9 | 0.00 | 0.00 | 0.00 | 69 | 1008.4 |
| 20260502033441 | 57 | 210 | 0.0 | 0.9 | 0.00 | 0.00 | 0.00 | 69 | 1008.4 |
| 20260502032936 | 57 | 210 | 0.0 | 0.9 | 0.00 | 0.00 | 0.00 | 68 | 1008.5 |
| 20260502032909 | 57 | 210 | 0.0 | 0.9 | 0.00 | 0.00 | 0.00 | 67 | 1008.4 |
| 20260502031923 | 58 | 210 | 0.0 | 0.9 | 0.00 | 0.00 | 0.00 | 67 | 1008.3 |
| 20260502031417 | 58 | 210 | 0.0 | 0.9 | 0.00 | 0.00 | 0.00 | 66 | 1008.1 |
| 20260502030911 | 58 | 210 | 0.0 | 0.9 | 0.00 | 0.00 | 0.00 | 66 | 1008.1 |
| 20260502030405 | 58 | 210 | 0.0 | 0.9 | 0.00 | 0.00 | 0.00 | 65 | 1008.1 |
| 20260502025859 | 58 | 210 | 0.0 | 0.9 | 0.00 | 0.00 | 0.00 | 65 | 1008.0 |
| 20260502025353 | 58 | 226 | 0.0 | 0.9 | 0.00 | 0.00 | 0.00 | 64 | 1007.8 |
| 20260502024846 | 59 | 229 | 0.0 | 0.9 | 0.00 | 0.00 | 0.00 | 64 | 1007.8 |
| 20260502024341 | 59 | 229 | 0.0 | 0.9 | 0.00 | 0.00 | 0.00 | 63 | 1007.9 |
| 20260502023834 | 59 | 162 | 0.0 | 0.9 | 0.00 | 0.00 | 0.00 | 62 | 1007.9 |
| 20260502023329 | 59 | 153 | 0.0 | 0.9 | 0.00 | 0.00 | 0.00 | 62 | 1008.0 |
| 20260502022823 | 59 | 326 | 0.0 | 0.9 | 0.00 | 0.00 | 0.00 | 62 | 1008.1 |
| 20260502022323 | 60 | 239 | 0.0 | 3.5 | 0.00 | 0.00 | 0.00 | 61 | 1008.1 |
| 20260502021822 | 60 | 179 | 0.0 | 3.5 | 0.00 | 0.00 | 0.00 | 60 | 1008.2 |
| 20260502021323 | 60 | 146 | 0.0 | 1.7 | 0.00 | 0.00 | 0.00 | 59 | 1008.1 |
| 20260502021258 | 60 | 159 | 0.0 | 1.7 | 0.00 | 0.00 | 0.00 | 59 | 1008.0 |
| 20260502020321 | 60 | 241 | 0.0 | 0.9 | 0.00 | 0.00 | 0.00 | 58 | 1008.0 |
| 20260502015819 | 60 | 153 | 0.0 | 0.0 | 0.00 | 0.00 | 0.00 | 57 | 1007.9 |
| 20260502015321 | 60 | 153 | 0.0 | 0.9 | 0.00 | 0.00 | 0.00 | 57 | 1007.9 |
| 20260502014820 | 60 | 153 | 0.0 | 0.9 | 0.00 | 0.00 | 0.00 | 57 | 1008.0 |
| 20260502014321 | 60 | 153 | 0.0 | 0.9 | 0.00 | 0.00 | 0.00 | 56 | 1007.9 |
| 20260502014041 | 60 | 15 | 0.0 | 0.0 | 0.00 | 0.00 | 0.00 | 56 | 1007.8 |
| 20260502013321 | 60 | 15 | 0.0 | 0.9 | 0.00 | 0.00 | 0.00 | 55 | 1007.8 |
| 20260502012817 | 60 | 15 | 0.0 | 0.9 | 0.00 | 0.00 | 0.00 | 54 | 1007.7 |
| 20260502012541 | 60 | 156 | 0.0 | 0.0 | 0.00 | 0.00 | 0.00 | 54 | 1007.7 |
| 20260502011815 | 61 | 156 | 0.0 | 0.0 | 0.00 | 0.00 | 0.00 | 53 | 1007.6 |
| 20260502011315 | 61 | 156 | 0.0 | 0.0 | 0.00 | 0.00 | 0.00 | 53 | 1007.5 |
| 20260502010817 | 61 | 156 | 0.0 | 0.0 | 0.00 | 0.00 | 0.00 | 53 | 1007.4 |
| 20260502010316 | 61 | 156 | 0.0 | 0.0 | 0.00 | 0.00 | 0.00 | 52 | 1007.4 |